• In Hungary
  • List of Countries
  • For 7 days
  • Water Temperature
  • Satellite Maps
  • Weather Map
  • News
  • Weather Widgets
  • user-avatar
    Login

    Hourly Weather Fargo

    Today, 18 October, Wednesday

    Time Temperature Precipitation Wind Pressure Humidity
    00:00 +15°C° 0 mm 5 mps 730 mmHg 39%
    01:00 +15°C° 0 mm 5 mps 729 mmHg 41%
    02:00 +15°C° 0 mm 5 mps 729 mmHg 42%
    03:00 +15°C° 0 mm 6 mps 729 mmHg 43%
    04:00 +14°C° 0 mm 5 mps 729 mmHg 43%
    05:00 +14°C° 0 mm 5 mps 729 mmHg 44%
    06:00 +13°C° 0 mm 5 mps 729 mmHg 44%
    07:00 +14°C° 0 mm 5 mps 730 mmHg 40%
    08:00 +16°C° 0 mm 6 mps 730 mmHg 35%
    09:00 +17°C° 0 mm 6 mps 731 mmHg 31%
    10:00 +17°C° 0 mm 7 mps 732 mmHg 28%
    11:00 +17°C° 0 mm 8 mps 732 mmHg 25%
    12:00 +17°C° 0 mm 8 mps 733 mmHg 22%
    13:00 +17°C° 0 mm 8 mps 733 mmHg 21%
    14:00 +17°C° 0 mm 8 mps 733 mmHg 19%
    15:00 +17°C° 0 mm 8 mps 733 mmHg 18%
    16:00 +16°C° 0 mm 6 mps 734 mmHg 19%
    17:00 +14°C° 0 mm 5 mps 734 mmHg 21%
    18:00 +13°C° 0 mm 4 mps 734 mmHg 23%
    19:00 +12°C° 0 mm 4 mps 734 mmHg 24%
    20:00 +11°C° 0 mm 3 mps 735 mmHg 25%
    21:00 +11°C° 0 mm 3 mps 735 mmHg 26%
    22:00 +10°C° 0 mm 3 mps 735 mmHg 26%
    23:00 +10°C° 0 mm 3 mps 736 mmHg 27%

    Tomorrow, 19 October, Thursday

    Time Temperature Precipitation Wind Pressure Humidity
    00:00 +9°C° 0 mm 3 mps 736 mmHg 28%
    01:00 +9°C° 0 mm 3 mps 736 mmHg 28%
    02:00 +9°C° 0 mm 3 mps 736 mmHg 28%
    03:00 +8°C° 0 mm 2 mps 736 mmHg 29%
    04:00 +8°C° 0 mm 2 mps 736 mmHg 29%
    05:00 +8°C° 0 mm 2 mps 736 mmHg 30%
    06:00 +8°C° 0 mm 2 mps 736 mmHg 30%
    07:00 +9°C° 0 mm 3 mps 736 mmHg 30%
    08:00 +11°C° 0 mm 4 mps 736 mmHg 29%
    09:00 +12°C° 0 mm 5 mps 736 mmHg 29%
    10:00 +14°C° 0 mm 5 mps 736 mmHg 27%
    11:00 +17°C° 0 mm 6 mps 736 mmHg 25%
    12:00 +20°C° 0 mm 7 mps 735 mmHg 23%
    13:00 +21°C° 0 mm 7 mps 735 mmHg 24%
    14:00 +22°C° 0 mm 7 mps 734 mmHg 24%
    15:00 +23°C° 0 mm 7 mps 734 mmHg 25%
    16:00 +21°C° 0 mm 6 mps 733 mmHg 28%
    17:00 +20°C° 0 mm 5 mps 733 mmHg 32%
    18:00 +17°C° 0 mm 5 mps 733 mmHg 36%
    19:00 +17°C° 0 mm 5 mps 733 mmHg 36%
    20:00 +16°C° 0 mm 6 mps 732 mmHg 37%
    21:00 +16°C° 0 mm 6 mps 732 mmHg 38%
    22:00 +15°C° 0 mm 6 mps 732 mmHg 42%
    23:00 +15°C° 0 mm 6 mps 732 mmHg 47%

    Day after tomorrow, 20 October, Friday

    Time Temperature Precipitation Wind Pressure Humidity
    00:00 +15°C° 0 mm 6 mps 731 mmHg 51%
    01:00 +15°C° 0 mm 6 mps 731 mmHg 57%
    02:00 +15°C° 0 mm 6 mps 730 mmHg 63%
    03:00 +15°C° 0 mm 6 mps 730 mmHg 69%
    04:00 +15°C° 0 mm 7 mps 729 mmHg 71%
    05:00 +15°C° 0 mm 7 mps 729 mmHg 72%
    06:00 +15°C° 0 mm 7 mps 728 mmHg 74%
    07:00 +16°C° 0 mm 8 mps 728 mmHg 69%
    08:00 +16°C° 0 mm 8 mps 728 mmHg 64%
    09:00 +17°C° 0 mm 9 mps 727 mmHg 60%
    10:00 +19°C° 0 mm 9 mps 727 mmHg 56%
    11:00 +21°C° 0 mm 9 mps 726 mmHg 52%
    12:00 +23°C° 0 mm 10 mps 726 mmHg 48%
    13:00 +23°C° 0 mm 10 mps 725 mmHg 48%
    14:00 +24°C° 0 mm 10 mps 725 mmHg 48%
    15:00 +26°C° 0 mm 10 mps 724 mmHg 49%
    16:00 +24°C° 0 mm 9 mps 724 mmHg 52%
    17:00 +23°C° 0 mm 8 mps 724 mmHg 55%
    18:00 +22°C° 0 mm 7 mps 723 mmHg 58%
    19:00 +22°C° 0 mm 7 mps 723 mmHg 60%
    20:00 +22°C° 0 mm 8 mps 723 mmHg 61%
    21:00 +22°C° 0 mm 8 mps 722 mmHg 63%
    22:00 +22°C° 0 mm 8 mps 722 mmHg 64%
    23:00 +21°C° 0 mm 8 mps 722 mmHg 65%

    21 October, Saturday

    Time Temperature Precipitation Wind Pressure Humidity
    00:00 +21°C° 0 mm 8 mps 722 mmHg 67%
    01:00 +20°C° 0 mm 8 mps 723 mmHg 56%
    02:00 +17°C° 0 mm 7 mps 724 mmHg 46%
    03:00 +16°C° 0 mm 7 mps 725 mmHg 36%
    04:00 +15°C° 0 mm 6 mps 726 mmHg 35%
    05:00 +15°C° 0 mm 6 mps 727 mmHg 35%
    06:00 +14°C° 0 mm 5 mps 728 mmHg 34%
    07:00 +14°C° 0 mm 5 mps 729 mmHg 33%
    08:00 +14°C° 0 mm 5 mps 730 mmHg 32%
    09:00 +14°C° 0 mm 5 mps 731 mmHg 31%
    10:00 +15°C° 0 mm 6 mps 731 mmHg 29%
    11:00 +16°C° 0 mm 6 mps 731 mmHg 27%
    12:00 +17°C° 0 mm 7 mps 732 mmHg 25%
    13:00 +17°C° 0 mm 7 mps 732 mmHg 24%
    14:00 +17°C° 0 mm 7 mps 732 mmHg 24%
    15:00 +17°C° 0 mm 7 mps 732 mmHg 24%
    16:00 +16°C° 0 mm 6 mps 733 mmHg 26%
    17:00 +15°C° 0 mm 5 mps 733 mmHg 28%
    18:00 +14°C° 0 mm 3 mps 733 mmHg 30%
    19:00 +13°C° 0 mm 4 mps 734 mmHg 31%
    20:00 +12°C° 0 mm 4 mps 735 mmHg 31%
    21:00 +12°C° 0 mm 4 mps 735 mmHg 32%
    22:00 +11°C° 0 mm 4 mps 735 mmHg 33%
    23:00 +11°C° 0 mm 4 mps 736 mmHg 33%

    22 October, Sunday

    Time Temperature Precipitation Wind Pressure Humidity
    00:00 +10°C° 0 mm 4 mps 736 mmHg 34%
    01:00 +9°C° 0 mm 3 mps 736 mmHg 35%
    02:00 +9°C° 0 mm 3 mps 736 mmHg 36%
    03:00 +8°C° 0 mm 3 mps 736 mmHg 37%
    04:00 +8°C° 0 mm 3 mps 736 mmHg 38%
    05:00 +7°C° 0 mm 3 mps 736 mmHg 39%
    06:00 +6°C° 0 mm 4 mps 736 mmHg 39%
    07:00 +7°C° 0 mm 5 mps 736 mmHg 35%
    08:00 +9°C° 0 mm 6 mps 735 mmHg 32%
    09:00 +10°C° 0 mm 7 mps 735 mmHg 28%
    10:00 +12°C° 0 mm 8 mps 734 mmHg 26%
    11:00 +13°C° 0 mm 8 mps 733 mmHg 25%
    12:00 +16°C° 0 mm 9 mps 732 mmHg 23%
    13:00 +17°C° 0 mm 9 mps 731 mmHg 25%
    14:00 +18°C° 0 mm 8 mps 730 mmHg 26%
    15:00 +18°C° 0 mm 8 mps 729 mmHg 28%
    16:00 +18°C° 0 mm 7 mps 729 mmHg 29%
    17:00 +18°C° 0 mm 7 mps 729 mmHg 31%
    18:00 +19°C° 0 mm 6 mps 729 mmHg 32%
    19:00 +17°C° 0 mm 6 mps 730 mmHg 30%
    20:00 +16°C° 0 mm 6 mps 730 mmHg 28%
    21:00 +16°C° 0 mm 6 mps 731 mmHg 26%
    22:00 +15°C° 0 mm 6 mps 731 mmHg 26%
    23:00 +14°C° 0 mm 6 mps 731 mmHg 26%

    23 October, Monday

    Time Temperature Precipitation Wind Pressure Humidity
    00:00 +14°C° 0 mm 6 mps 731 mmHg 26%
    01:00 +13°C° 0 mm 6 mps 732 mmHg 28%
    02:00 +11°C° 0 mm 6 mps 732 mmHg 30%
    03:00 +10°C° 0 mm 6 mps 733 mmHg 32%
    04:00 +9°C° 0 mm 5 mps 733 mmHg 36%
    05:00 +8°C° 0 mm 5 mps 734 mmHg 41%
    06:00 +7°C° 0 mm 4 mps 734 mmHg 46%
    07:00 +8°C° 0 mm 5 mps 734 mmHg 45%
    08:00 +9°C° 0 mm 5 mps 735 mmHg 44%
    09:00 +10°C° 0 mm 6 mps 735 mmHg 44%
    10:00 +11°C° 0 mm 6 mps 735 mmHg 38%
    11:00 +12°C° 0 mm 7 mps 735 mmHg 33%
    12:00 +15°C° 0 mm 8 mps 735 mmHg 28%
    13:00 +15°C° 0 mm 8 mps 734 mmHg 26%
    14:00 +15°C° 0 mm 8 mps 734 mmHg 25%
    15:00 +15°C° 0 mm 8 mps 734 mmHg 24%
    16:00 +14°C° 0 mm 7 mps 734 mmHg 25%
    17:00 +13°C° 0 mm 6 mps 734 mmHg 27%
    18:00 +12°C° 0 mm 5 mps 734 mmHg 29%
    19:00 +12°C° 0 mm 5 mps 735 mmHg 29%
    20:00 +10°C° 0 mm 6 mps 735 mmHg 29%
    21:00 +9°C° 0 mm 6 mps 736 mmHg 29%
    22:00 +8°C° 0 mm 6 mps 736 mmHg 31%
    23:00 +8°C° 0 mm 6 mps 736 mmHg 33%
    Show more